Forside
METAR-TAF:

METAR-TAF

Lufthavne :

Frankfort, Michigan, USA

Breddekreds: 44-37-30N, længdekreds: 086-12-02W, højde: 193 m

Aktuelle vejr

Denne rapport blev lavet for 22 minutter siden, kl. 11:56 UTC
Vind 3 kt fra østsydøst
Temperatur -6°C
Fugtighed 86%
Tryk 1026 hPa
Sigt: 16.1 km
skyfri

METAR: KFKS 241156Z AUTO 12003KT 10SM CLR M06/M08 A3031 RMK AO2

Tid: 07:18 (12:18 UTC)


TAF: fraværende

Vejrobservationer og prognoser fra mere end 4000 lufthavne (METAR og TAF).

De gule og røde prikker repræsenterer de meteorologiske stationer.

Flyt musen over at se navnet på stationen.

Så klik over at se vejr observationer og prognoser.

At skifte det kort: Klik på de grønne knapper med et sort kors for at zoome ind; på den grønne knap med en bindestreg for at zoome ud; eller på de grønne pile for tilstødende kort.


METAR-TAF: